{"data":{"norad_id":53055,"epoch":"2026-09-18T00:26:37.611168Z","epoch_age_seconds":284195,"freshness":"STALE","line1":"1 53055U 22077N   26261.01849087 -.00000324  00000+0 -77241-5 0  9996","line2":"2 53055  97.2859  76.6941 0001962  88.6233 271.5234 15.33432097229960","mean_motion":15.33432097,"eccentricity":0.0001962,"inclination_deg":97.2859,"raan_deg":76.6941,"arg_perigee_deg":88.6233,"mean_anomaly_deg":271.5234,"bstar":-7.7241e-6,"rev_number":22996,"period_min":93.906994826651,"perigee_km":464.23882741484,"apogee_km":466.92430257974,"semimajor_km":6843.7185649973,"source":"CELESTRAK","updated_at":"2026-09-20T09:00:40.152251Z"}}